Stations météo

Publicité
Rennes, France (7130): Température de l'air & dewpoint: 20.06.2019 19:00:00 - 26.06.2019 19:00:00 (CEST)Rennes, France (7130): Température de l'air 5cm: 20.06.2019 19:00:00 - 26.06.2019 19:00:00 (CEST)Rennes, France (7130): Température de l'air -20cm & Température de l'air -100cm: 20.06.2019 19:00:00 - 26.06.2019 19:00:00 (CEST)Rennes, France (7130): Vitesse du vent & gusts: 20.06.2019 19:00:00 - 26.06.2019 19:00:00 (CEST)Rennes, France (7130): Direction du vent: 20.06.2019 19:00:00 - 26.06.2019 19:00:00 (CEST)Rennes, France (7130): reduced air pressure: 20.06.2019 19:00:00 - 26.06.2019 19:00:00 (CEST)Rennes, France (7130): visibility: 20.06.2019 19:00:00 - 26.06.2019 19:00:00 (CEST)Rennes, France (7130): Ensoleillement: 20.06.2019 19:00:00 - 26.06.2019 19:00:00 (CEST)Rennes, France (7130): Quantités de précipitations: 20.06.2019 19:00:00 - 26.06.2019 19:00:00 (CEST)
Date & Time tt [°C] td [°C] tt 5cm [°C] tt -20cm [°C] tt -100cm [°C] ff [km/h] ff [knt] fx [km/h] fx [knt] dd ppp [hPa] vv [km] sd [min] rr [mm]
26.06.2019 19:00:00 33,4 22,2 34,7 18,4 15,2 23 12 37 20 ENE 1016,3 20 60 0,0
26.06.2019 18:00:00 33,5 22,6 34,8 18,2 15,2 23 12 43 23 ENE 1016,6 17 60 0,0
26.06.2019 17:00:00 33,0 20,9 34,6 18,0 15,2 24 13 44 24 E 1017,3 17 60 0,0
26.06.2019 16:00:00 33,0 21,2 34,2 17,8 15,2 27 15 45 24 E 1017,2 19 60 0,0
26.06.2019 15:00:00 32,0 21,5 33,3 17,6 15,2 26 14 53 28 ENE 1017,7 20 60 0,0
26.06.2019 14:00:00 31,3 20,6 33,1 17,4 15,2 29 16 44 24 ENE 1018,0 21 60 0,0
26.06.2019 13:00:00 30,8 20,1 31,1 17,4 15,2 21 12 41 22 NE 1018,3 24 60 0,0
26.06.2019 12:00:00 28,6 21,1 25,9 17,3 15,2 19 11 36 19 ENE 1018,7 20 43 0,0
26.06.2019 11:00:00 24,7 20,6 24,5 17,3 15,1 25 14 41 22 ENE 1019,0 18 7 0,0
26.06.2019 10:00:00 24,2 19,9 19,1 17,3 15,1 11 6 36 20 E 1020,1 10 24 0,0
26.06.2019 09:00:00 18,8 18,3 18,2 17,3 15,1 14 7 32 18 N 1020,7 6 0 0,0
26.06.2019 08:00:00 18,7 18,0 17,2 17,3 15,1 16 8 22 12 W 1022,7 6 53 0,0
26.06.2019 07:00:00 17,2 17,2 16,0 17,4 15,1 13 7 18 10 N 1020,3 4,5 0 0,2
26.06.2019 06:00:00 16,7 16,7 15,6 17,4 15,1 10 6 21 11 NW 1020,8 3,8 0 0,4
26.06.2019 05:00:00 16,4 16,4 16,0 17,4 15,1 8 4 29 16 W 1020,9 6 0 0,4
26.06.2019 04:00:00 16,3 16,1 16,0 17,5 15,1 8 4 15 8 WNW 1021,1 7 0 0,0
26.06.2019 03:00:00 16,6 16,3 16,1 17,5 15,1 6 3 19 10 NNW 1020,9 8 0 0,2
26.06.2019 02:00:00 16,8 16,3 16,3 17,5 15,1 11 6 18 10 NNW 1021,2 8 0 0,0
26.06.2019 01:00:00 17,1 16,5 16,7 17,5 15,1 10 6 21 11 NNW 1021,3 13 0 0,0
26.06.2019 00:00:00 17,6 16,8 17,0 17,5 15,1 9 5 19 11 NNW 1021,3 20 0 0,0
25.06.2019 23:00:00 18,6 17,3 18,1 17,5 15,1 11 6 22 12 N 1020,7 40 0 0,0
25.06.2019 22:00:00 19,2 17,5 18,5 17,4 15,1 10 5 15 8 NW 1020,4 33 0 0,0
25.06.2019 21:00:00 20,5 17,7 20,4 17,4 15,1 9 5 16 9 N 1019,8 28 0 0,0
25.06.2019 20:00:00 21,0 18,2 21,1 17,3 15,1 9 5 19 11 NW 1020,1 27 19 0,0
25.06.2019 19:00:00 21,8 18,0 21,9 17,2 15,1 10 5 18 10 N 1019,7 33 11 0,0
25.06.2019 18:00:00 21,0 17,6 21,7 17,2 15,1 9 5 20 11 NNW 1019,5 22 0 0,0
25.06.2019 17:00:00 20,7 17,5 22,3 17,1 15,1 10 5 19 10 NNW 1019,4 20 0 0,0
25.06.2019 16:00:00 20,5 17,5 22,1 17,1 15,1 10 5 18 10 NNW 1019,4 20 0 0,0
25.06.2019 15:00:00 19,9 16,9 21,2 17,1 15,1 11 6 21 11 NW 1019,2 16 0 0,0
25.06.2019 14:00:00 19,3 17,3 20,5 17,0 15,1 9 5 17 9 NW 1019,1 17 0 0,0
25.06.2019 13:00:00 18,5 16,8 19,9 17,0 15,1 10 5 16 9 NW 1018,7 14 0 0,0
25.06.2019 12:00:00 18,3 16,5 19,5 17,0 15,1 4 2 11 6 NW 1018,3 23 0 0,0
25.06.2019 11:00:00 17,8 16,1 18,7 17,0 15,1 4 2 16 8 NNW 1017,7 20 0 0,0
25.06.2019 10:00:00 16,9 16,1 16,9 17,0 15,1 9 5 18 10 N 1017,3 24 0 0,0
25.06.2019 09:00:00 16,1 15,5 15,6 17,0 15,0 11 6 19 11 NNW 1016,9 26 0 0,0
25.06.2019 08:00:00 15,7 15,5 15,3 17,0 15,0 8 5 22 12 NNW 1016,7 21 0 0,0
25.06.2019 07:00:00 15,7 15,5 15,4 17,1 15,1 12 7 20 11 NNW 1016,2 9 0 0,0
25.06.2019 06:00:00 15,9 15,9 15,3 17,1 15,0 7 4 19 11 NNW 1015,9 10 0 0,2
25.06.2019 05:00:00 15,6 15,6 15,3 17,2 15,0 11 6 23 13 NNW 1015,7 7 0 0,0
25.06.2019 04:00:00 15,9 15,9 15,6 17,2 15,0 13 7 20 11 NW 1015,7 6 0 0,0
25.06.2019 03:00:00 16,1 16,1 15,3 17,2 15,0 12 6 22 12 NW 1016,0 7 0 0,0
25.06.2019 02:00:00 15,6 15,4 15,0 17,2 15,0 13 7 21 11 NNW 1016,0 9 0 0,0
25.06.2019 01:00:00 15,6 15,1 15,2 17,3 15,0 11 6 22 12 NW 1016,5 10 0 0,0
25.06.2019 00:00:00 15,9 15,6 15,4 17,3 15,0 13 7 23 13 NNW 1016,5 10 0 0,0
24.06.2019 23:00:00 16,1 15,8 15,5 17,3 15,0 14 7 29 15 NW 1016,6 16 0 0,0
24.06.2019 22:00:00 16,4 15,6 15,7 17,3 15,0 13 7 33 18 N 1016,3 21 0 0,2
24.06.2019 21:00:00 17,3 17,0 16,8 17,3 15,0 15 8 34 18 NNW 1016,8 10 0 0,4
24.06.2019 20:00:00 18,6 17,3 18,6 17,2 15,0 15 8 32 17 NNW 1017,0 27 0 0,0
24.06.2019 19:00:00 19,3 18,0 19,6 17,2 15,0 19 10 29 15 NW 1016,6 31 0 0,0
24.06.2019 18:00:00 19,7 18,2 19,7 17,1 15,0 11 6 19 10 N 1016,4 23 0 0,0
24.06.2019 17:00:00 19,9 18,2 20,0 17,1 15,0 11 6 20 11 NW 1016,2 25 0 0,0
24.06.2019 16:00:00 19,8 18,5 19,0 17,1 15,0 11 6 19 10 N 1015,7 20 0 0,0
24.06.2019 15:00:00 19,2 17,7 18,6 17,1 15,0 4 2 11 6 N 1016,6 18 0 0,4
24.06.2019 14:00:00 18,4 17,6 17,2 17,1 15,0 5 3 11 6 E 1016,8 19 0 0,6
24.06.2019 13:00:00 17,5 16,9 17,1 17,1 15,0 3 2 19 10 E 1017,3 7 0 0,4
24.06.2019 12:00:00 17,2 16,9 16,3 17,1 15,0 4 2 11 6 N 1016,8 11 0 0,0
24.06.2019 11:00:00 16,6 16,4 15,3 17,2 14,9 10 5 24 13 ESE 1017,6 8 0 1,5
24.06.2019 10:00:00 15,8 15,3 15,3 17,2 15,0 8 4 21 12 ESE 1017,2 3,2 0 2,2
24.06.2019 09:00:00 15,9 15,1 15,4 17,2 15,0 10 6 14 8 NNW 1016,1 9 0 1,6
24.06.2019 08:00:00 16,5 16,5 15,9 17,3 14,9 8 4 13 7 NNW 1015,6 6 0 0,8
24.06.2019 07:00:00 16,2 16,2 15,7 17,3 15,0 4 2 11 6 SSW 1015,8 7 0 0,6
24.06.2019 06:00:00 16,5 16,3 15,7 17,4 14,9 8 4 14 8 SSW 1015,9 7 0 0,6
24.06.2019 05:00:00 16,8 15,8 15,7 17,4 14,9 4 2 19 10 SW 1015,2 14 0 0,0
24.06.2019 04:00:00 17,3 16,0 14,8 17,5 14,9 12 6 17 9 S 1015,2 31 0 0,0
24.06.2019 03:00:00 16,7 15,9 13,9 17,5 14,9 4 2 13 7 SSW 1014,1 30 0 0,0
24.06.2019 02:00:00 17,6 15,8 15,8 17,6 14,9 9 5 16 9 S 1014,0 38 0 0,0
24.06.2019 01:00:00 18,9 15,9 18,0 17,6 14,9 10 5 23 12 SSW 1013,9 47 0 0,0
24.06.2019 00:00:00 20,0 15,8 19,2 17,6 14,9 11 6 21 11 S 1013,1 51 0 0,0
23.06.2019 23:00:00 21,0 15,5 20,1 17,6 14,9 11 6 20 11 S 1012,5 37 0 0,0
23.06.2019 22:00:00 22,5 15,6 20,9 17,5 14,9 7 4 37 20 S 1011,7 57 27 0,0
23.06.2019 21:00:00 24,8 15,4 24,7 17,4 14,9 22 12 44 24 SSW 1011,2 27 16 0,0
23.06.2019 20:00:00 28,2 16,1 28,3 17,3 14,9 19 10 36 19 E 1009,8 45 40 0,0
23.06.2019 19:00:00 28,6 16,8 28,9 17,2 14,9 16 9 31 17 E 1009,7 46 57 0,0
23.06.2019 18:00:00 28,0 16,6 28,2 17,1 14,9 20 11 39 21 E 1010,1 49 31 0,0
23.06.2019 17:00:00 27,6 17,2 27,8 17,0 14,9 15 8 28 15 E 1010,7 45 34 0,0
23.06.2019 16:00:00 26,3 17,1 27,0 16,9 14,9 15 8 32 17 E 1011,1 35 6 0,0
23.06.2019 15:00:00 25,7 16,5 27,3 16,8 14,9 18 10 36 19 ESE 1011,6 27 27 0,0
23.06.2019 14:00:00 25,3 16,7 25,5 16,7 14,9 16 9 30 16 E 1011,6 29 18 0,0
23.06.2019 13:00:00 23,5 16,3 23,1 16,7 14,9 19 10 32 17 E 1012,2 30 1 0,0
23.06.2019 12:00:00 22,2 16,2 21,4 16,7 14,9 16 9 26 14 ENE 1012,2 32 2 0,0
23.06.2019 11:00:00 20,0 15,4 20,2 16,7 14,8 10 5 25 13 E 1013,5 30 0 0,0
23.06.2019 10:00:00 19,4 15,1 18,6 16,7 14,9 13 7 28 15 E 1013,4 37 0 0,0
23.06.2019 09:00:00 17,8 14,7 17,1 16,8 14,8 9 5 22 12 E 1013,7 29 0 0,0
23.06.2019 08:00:00 17,1 14,0 16,5 16,8 14,8 14 8 26 14 E 1013,3 29 1 0,0
23.06.2019 07:00:00 16,4 13,1 15,1 16,9 14,8 9 5 19 10 E 1013,7 35 6 0,0
23.06.2019 06:00:00 15,5 12,4 14,5 17,0 14,9 11 6 17 9 ENE 1013,6 42 0 0,0
23.06.2019 05:00:00 15,7 11,9 15,0 17,0 14,9 8 4 18 10 E 1014,1 51 0 0,0
23.06.2019 04:00:00 16,2 11,8 15,6 17,0 14,8 13 7 20 11 E 1014,3 59 0 0,0
23.06.2019 03:00:00 16,9 11,4 16,5 17,1 14,8 11 6 17 9 E 1014,9 60 0 0,0
23.06.2019 02:00:00 17,8 10,9 16,2 17,1 14,8 12 7 19 11 E 1015,3 52 0 0,0
23.06.2019 01:00:00 18,1 10,7 17,3 17,2 14,8 11 6 17 9 E 1015,7 60 0 0,0
23.06.2019 00:00:00 18,7 10,8 17,3 17,2 14,8 11 6 16 9 E 1015,9 60 0 0,0
22.06.2019 23:00:00 18,7 10,5 17,3 17,2 14,8 11 6 15 8 ENE 1016,1 60 0 0,0
22.06.2019 22:00:00 20,2 10,3 18,7 17,2 14,8 9 5 16 9 ENE 1015,8 60 9 0,0
22.06.2019 21:00:00 22,1 11,2 21,4 17,1 14,8 9 5 24 13 ENE 1015,9 60 28 0,0
22.06.2019 20:00:00 22,7 9,8 22,8 17,0 14,9 16 9 29 16 ESE 1015,9 51 34 0,0
22.06.2019 19:00:00 23,5 10,5 23,0 16,9 14,8 13 7 31 17 E 1016,3 48 42 0,0
22.06.2019 18:00:00 24,1 10,7 24,1 16,8 14,8 16 9 31 17 ESE 1016,6 35 38 0,0
22.06.2019 17:00:00 24,1 9,3 25,6 16,6 14,8 16 9 36 20 E 1017,1 35 57 0,0
22.06.2019 16:00:00 23,9 9,8 23,6 16,5 14,8 18 10 32 18 E 1017,6 36 34 0,0
22.06.2019 15:00:00 23,3 10,0 23,0 16,3 14,8 16 9 30 16 E 1018,1 54 33 0,0
22.06.2019 14:00:00 22,5 10,6 23,2 16,3 14,8 14 8 31 17 ESE 1018,5 40 50 0,0
22.06.2019 13:00:00 22,0 10,5 22,9 16,2 14,8 12 7 28 15 ESE 1018,9 57 49 0,0
22.06.2019 12:00:00 21,3 11,3 23,1 16,1 14,8 19 10 29 16 ESE 1019,3 27 60 0,0
22.06.2019 11:00:00 20,2 11,1 20,6 16,1 14,8 15 8 30 16 ESE 1019,7 27 60 0,0
22.06.2019 10:00:00 18,2 11,5 18,3 16,2 14,8 17 9 29 15 E 1020,2 30 60 0,0
22.06.2019 09:00:00 15,9 11,1 14,8 16,3 14,8 13 7 22 12 ESE 1020,4 33 60 0,0
22.06.2019 08:00:00 13,6 11,1 11,3 16,4 14,8 6 4 12 7 ENE 1020,7 21 43 0,0
22.06.2019 07:00:00 10,6 10,6 5,5 16,5 14,8 3 1 9 5 NNE 1020,8 13 25 0,0
22.06.2019 06:00:00 9,9 9,9 5,2 16,6 14,8 4 2 6 3 N 1020,7 1,5 0 0,0
22.06.2019 05:00:00 9,3 9,3 6,9 16,7 14,8 4 2 11 6 NW 1021,1 0,6 0 0,0
22.06.2019 04:00:00 9,8 9,8 6,8 16,8 14,8 5 3 8 4 W 1021,3 3,7 0 0,0
22.06.2019 03:00:00 9,9 9,9 7,1 16,9 14,8 3 2 9 5 W 1021,7 11 0 0,0
22.06.2019 02:00:00 10,8 10,2 8,8 17,0 14,8 4 2 12 6 NW 1022,0 20 0 0,0
22.06.2019 01:00:00 12,0 10,4 10,2 17,0 14,8 6 4 16 8 NNW 1022,2 47 0 0,0
22.06.2019 00:00:00 12,6 10,0 10,7 17,1 14,8 11 6 16 8 NW 1022,4 60 0 0,0
21.06.2019 23:00:00 14,1 8,7 12,4 17,1 14,8 6 3 23 12 NNW 1022,2 60 0 0,0
21.06.2019 22:00:00 16,0 7,7 15,4 17,1 14,8 14 8 29 15 N 1021,7 60 42 0,0
21.06.2019 21:00:00 18,2 8,5 18,3 17,1 14,8 19 10 31 17 N 1021,4 34 57 0,0
21.06.2019 20:00:00 19,1 9,8 19,5 17,0 14,8 13 7 27 15 NNE 1021,0 47 9 0,0
21.06.2019 19:00:00 19,4 10,9 20,2 16,9 14,8 14 7 24 13 N 1020,9 50 0 0,0
21.06.2019 18:00:00 19,9 10,6 21,9 16,8 14,8 11 6 22 12 N 1020,9 56 7 0,0
21.06.2019 17:00:00 20,5 9,4 22,2 16,7 14,8 9 5 23 12 NW 1020,9 53 13 0,0
21.06.2019 16:00:00 20,1 8,4 22,4 16,6 14,7 10 5 23 12 NW 1021,0 48 36 0,0
21.06.2019 15:00:00 20,5 8,8 21,2 16,5 14,8 9 5 25 14 N 1021,1 20 25 0,0
21.06.2019 14:00:00 20,0 10,1 20,7 16,4 14,7 9 5 23 13 NNE 1021,3 54 25 0,0
21.06.2019 13:00:00 18,4 10,0 19,1 16,3 14,7 12 6 24 13 NW 1021,3 55 40 0,0
21.06.2019 12:00:00 17,9 10,5 19,8 16,3 14,7 11 6 22 12 NW 1021,3 50 49 0,0
21.06.2019 11:00:00 17,1 11,8 17,0 16,4 14,7 10 5 23 13 NW 1021,4 37 32 0,0
21.06.2019 10:00:00 16,5 11,6 18,2 16,4 14,7 14 8 22 12 NW 1021,3 28 57 0,0
21.06.2019 09:00:00 14,7 12,2 16,3 16,5 14,7 10 6 18 10 NNW 1021,2 22 60 0,0
21.06.2019 08:00:00 12,8 12,0 10,0 16,6 14,7 7 4 11 6 NNW 1021,0 20 56 0,0
21.06.2019 07:00:00 10,1 10,1 7,4 16,7 14,7 6 3 14 7 W 1020,7 11 26 0,0
21.06.2019 06:00:00 10,2 10,2 7,4 16,8 14,7 5 3 7 4 WNW 1020,4 0,3 0 0,0
21.06.2019 05:00:00 10,2 10,0 8,1 16,9 14,7 7 4 10 5 WNW 1020,3 9 0 0,0
21.06.2019 04:00:00 11,8 10,5 10,1 16,9 14,7 6 4 12 7 N 1020,3 30 0 0,0
21.06.2019 03:00:00 12,1 10,7 10,8 17,0 14,7 9 5 13 7 NNW 1020,0 38 0 0,0
21.06.2019 02:00:00 13,2 10,9 12,4 17,0 14,7 8 4 14 7 N 1020,2 46 0 0,0
21.06.2019 01:00:00 14,1 10,7 13,5 17,1 14,7 10 5 19 10 N 1020,2 55 0 0,0
21.06.2019 00:00:00 14,5 10,1 14,2 17,1 14,7 12 6 23 12 N 1019,6 58 0 0,0
20.06.2019 23:00:00 14,9 10,5 14,3 17,1 14,7 9 5 23 13 N 1019,1 60 0 0,0
20.06.2019 22:00:00 15,8 10,3 15,6 17,1 14,7 15 8 29 16 N 1018,5 60 0 0,0
20.06.2019 21:00:00 17,5 10,6 17,7 17,1 14,7 15 8 26 14 N 1017,9 51 22 0,0
20.06.2019 20:00:00 17,5 10,6 18,0 17,1 14,7 13 7 24 13 NNW 1017,6 57 27 0,0
20.06.2019 19:00:00 19,0 10,8 19,8 17,0 14,7 14 8 26 14 NNW 1017,7 55 20 0,0

tt = Température de l'air
td = dewpoint
tt 5cm = Température de l'air 5cm
tt -20cm = Température de l'air -20cm
tt -100cm = Température de l'air -100cm
ff = Vitesse du vent
fx = gusts
dd = Direction du vent
ppp = reduced air pressure
vv = visibility
sd = Ensoleillement
rr = Quantités de précipitations

stations d'obs. à proximité